530  
ASUS42 KRAH 230110  
RWRRAH  
NORTH CAROLINA WEATHER ROUNDUP  
NATIONAL WEATHER SERVICE RALEIGH NC  
900 PM EDT TUE JUN 22 2021  
 
NOTE: "FAIR" INDICATES FEW OR NO CLOUDS BELOW 12,000 FEET WITH NO  
SIGNIFICANT WEATHER AND/OR S TO VISIBILITY
.  
 
NCZ001-053-055-056-065-067-230200-  
WESTERN NORTH CAROLINA  
 
CITY SKY/WX TMP DP RH WIND PRES REMARKS
 
ASHEVILLE CLEAR 67 54 63 NW7 30.04R  
JEFFERSON NOT AVBL  
MORGANTON CLEAR 65 59 81 CALM 30.03R  
HICKORY CLEAR 72 53 51 N3 29.98R  
WILKESBORO NOT AVBL  
RUTHERFORDTON CLEAR 72 55 56 CALM 29.99R  
MOUNT AIRY NOT AVBL  
BOONE N/A 58 51 77 CALM 30.08R  

 
 
NCZ021-022-025-041-071-084-088-230200-  
CENTRAL NORTH CAROLINA  
 
CITY SKY/WX TMP DP RH WIND PRES REMARKS
 
CHARLOTTE MOCLDY 75 57 53 N8 29.97R  
GREENSBORO MOCLDY 69 58 67 E5 29.97R  
WINSTON-SALEM PTCLDY 71 56 58 CALM 29.98R  
RALEIGH-DURHAM CLOUDY 68 66 93 CALM 29.97R  
FORT BRAGG MOCLDY 69 69 99 CALM 29.96R  
FAYETTEVILLE MOCLDY 69 66 90 N3 29.96R  
BURLINGTON PTCLDY 68 61 78 CALM 29.97R  
ROXBORO NOT AVBL  
HENDERSON NOT AVBL  
LOUISBURG CLOUDY 66 63 88 CALM 30.00R  
LAURINBURG CLOUDY 70 67 90 E3 29.96R  

 
 
NCZ011-015-027-028-043-044-047-080-103-230200-  
NORTHEASTERN NORTH CAROLINA  
 
CITY SKY/WX TMP DP RH WIND PRES REMARKS
 
ROCKY MT-WILSO MOCLDY 69 61 75 NE8 29.97R  
GREENVILLE NOT AVBL  
ELIZABETH CITY CLOUDY 70 67 90 N7 29.95R  
MANTEO RAIN 67 66 96 CALM 29.96R  
CAPE HATTERAS RAIN 69 67 93 N6 29.96R FOG  

 
 
NCZ078-087-090-091-093-098-101-230200-  
SOUTHEASTERN NORTH CAROLINA  
 
CITY SKY/WX TMP DP RH WIND PRES REMARKS
 
GOLDSBORO MOCLDY 70 69 99 NW5 29.94R  
KINSTON MOCLDY 70 68 94 CALM 29.96R  
KENANSVILLE NOT AVBL  
NEW BERN HVY RAIN 69 68 96 N7 29.96R FOG  
CHERRY POINT RAIN 70 68 93 N7 29.96R FOG  
BEAUFORT LGT RAIN 73 72 96 MISG 29.94R  
JACKSONVILLE LGT RAIN 69 68 96 N7 29.95R FOG  
WILMINGTON MOCLDY 77 73 87 SW7 29.94R  

 
 
 
 
CLICK HERE TO GO TO PREVIOUS BULLETINS.

The Nexlab NC Page Main Text Page